Columbia, MO

3:48 AM CDT on April 29, 2017 (GMT -0500)
Columbia Regional

Weather History for KCOU - January, 2015

Change the Weather History Date:

Saturday, January 17, 2015

  Actual Average Record
Temperature  
Mean Temperature 46 °F 30 °F  
Max Temperature 54 °F 38 °F 74 °F (1894)
Min Temperature 37 °F 21 °F -18 °F (1977)
Degree Days  
Heating Degree Days 19 36  
Month to date heating degree days 657 608  
Since 1 July heating degree days 2608 2603  
Cooling Degree Days 0 0  
Month to date cooling degree days 0 0  
Year to date cooling degree days 0 0  
Moisture  
Dew Point 30 °F    
Average Humidity 58    
Maximum Humidity 70    
Minimum Humidity 45    
Precipitation  
Precipitation 0.00 in 0.07 in 1.27 in (1900)
Month to date precipitation 0.53 1.06  
Year to date precipitation 0.53 1.06  
Snow  
Snow 0.00 in 0.20 in 5.10 in (1987)
Month to date snowfall 0.1 3.3  
Since 1 July snowfall 1.9 8.6  
Snow Depth 0.00 in    
Sea Level Pressure  
Sea Level Pressure 29.87 in    
Wind  
Wind Speed 14 mph (WSW)    
Max Wind Speed 25 mph    
Max Gust Speed 34 mph    
Visibility 10 miles    
Events      
T = Trace of Precipitation, MM = Missing Value Source: NWS Daily Summary

Daily Weather History Graph

Daily Weather History Graph

Search for Another Location

Airport or City:

Trip Planner

Search our weather history database for the weather conditions in past years. The results will help you decide how hot, cold, wet, or windy it might be!

Date:

Astronomy

Jan. 17, 2015 Rise Set
Actual Time 7:25 AM CST 5:13 PM CST
Civil Twilight 6:55 AM CST 5:42 PM CST
Nautical Twilight 6:23 AM CST 6:14 PM CST
Astronomical Twilight 5:51 AM CST 6:46 PM CST
Moon 4:22 AM CST (1/17) 2:39 PM CST (1/17)
Length of Visible Light 10h 46m
Length of Day
9h 48m
Waning Crescent, 11% of the Moon is Illuminated
Jan 17
Waning Crescent
Jan 20
New
Jan 26
First Quarter
Feb 3
Full
Feb 11
Last Quarter

Hourly Weather History & Observations

Time (CST) Temp. Windchill Dew Point Humidity Pressure Visibility Wind Dir Wind Speed Gust Speed Precip Events Conditions
12:54 AM 39.9 °F 33.4 °F 28.0 °F 63% 29.93 in 10.0 mi South 10.4 mph - N/A   Clear
1:54 AM 39.9 °F 32.9 °F 28.0 °F 63% 29.92 in 10.0 mi South 11.5 mph - N/A   Clear
2:54 AM 39.9 °F 32.9 °F 28.0 °F 63% 29.91 in 10.0 mi South 11.5 mph - N/A   Clear
3:54 AM 39.0 °F 32.3 °F 28.0 °F 65% 29.87 in 10.0 mi South 10.4 mph - N/A   Clear
4:54 AM 37.9 °F 30.5 °F 28.0 °F 68% 29.85 in 10.0 mi South 11.5 mph - N/A   Clear
5:54 AM 37.4 °F 29.8 °F 28.4 °F 70% 29.82 in 10.0 mi South 11.5 mph - N/A   Clear
6:54 AM 37.9 °F 30.5 °F 28.9 °F 70% 29.83 in 10.0 mi South 11.5 mph - N/A   Clear
7:54 AM 39.0 °F 31.4 °F 28.9 °F 67% 29.82 in 10.0 mi South 12.7 mph - N/A   Clear
8:54 AM 45.0 °F 38.5 °F 30.9 °F 58% 29.82 in 10.0 mi South 13.8 mph - N/A   Clear
9:54 AM 48.0 °F - 32.0 °F 54% 29.81 in 10.0 mi SSW 13.8 mph - N/A   Clear
10:54 AM 51.1 °F - 33.1 °F 50% 29.82 in 10.0 mi SW 11.5 mph - N/A   Clear
11:54 AM 52.0 °F - 33.1 °F 49% 29.80 in 10.0 mi WSW 21.9 mph 29.9 mph N/A   Clear
12:54 PM 51.1 °F - 33.1 °F 50% 29.78 in 10.0 mi WSW 20.7 mph 29.9 mph N/A   Clear
1:54 PM 53.1 °F - 33.1 °F 47% 29.80 in 10.0 mi West 20.7 mph - N/A   Clear
2:54 PM 53.1 °F - 32.0 °F 45% 29.81 in 10.0 mi West 18.4 mph - N/A   Clear
3:54 PM 52.0 °F - 32.0 °F 47% 29.84 in 10.0 mi WNW 13.8 mph 25.3 mph N/A   Clear
4:54 PM 51.1 °F - 32.0 °F 48% 29.87 in 10.0 mi WNW 15.0 mph 29.9 mph N/A   Clear
5:54 PM 46.9 °F - 32.0 °F 56% 29.91 in 10.0 mi WNW 12.7 mph - N/A   Clear
6:54 PM 43.0 °F 37.7 °F 30.9 °F 62% 29.91 in 10.0 mi West 9.2 mph - N/A   Clear
7:54 PM 44.1 °F 37.1 °F 28.0 °F 53% 29.93 in 10.0 mi West 15.0 mph - N/A   Partly Cloudy
8:54 PM 45.0 °F 37.6 °F 25.0 °F 46% 29.93 in 10.0 mi WNW 17.3 mph 23.0 mph N/A   Partly Cloudy
9:54 PM 43.0 °F 34.2 °F 27.0 °F 53% 29.94 in 10.0 mi WNW 20.7 mph 28.8 mph N/A   Clear
10:54 PM 41.0 °F 32.5 °F 28.9 °F 62% 29.97 in 10.0 mi WNW 17.3 mph 23.0 mph N/A   Clear
11:54 PM 37.9 °F 30.9 °F 28.0 °F 68% 29.99 in 10.0 mi West 10.4 mph - N/A   Clear